Time,TemperatureF,DewpointF,PressureIn,WindDirection,WindDirectionDegrees,WindSpeedMPH,WindSpeedGustMPH,Humidity,HourlyPrecipIn,Conditions,Clouds,dailyrainin,SoftwareType,DateUTC
2013-05-08 00:01:00,59.5,57.2,30.00,NE,45,2.0,4.0,92,0.00,,,0.00,LWC V2.11 B50,2013-05-08 04:01:00,
2013-05-08 00:06:00,59.3,57.0,29.99,NE,46,3.0,5.0,92,0.00,,,0.00,LWC V2.11 B50,2013-05-08 04:06:00,
2013-05-08 00:11:00,59.3,57.0,30.00,NE,49,0.0,0.0,92,0.00,,,0.00,LWC V2.11 B50,2013-05-08 04:11:00,
2013-05-08 00:16:00,59.2,57.2,30.00,NNE,29,2.0,7.0,93,0.00,,,0.00,LWC V2.11 B50,2013-05-08 04:16:00,
2013-05-08 00:21:00,59.2,57.2,30.00,ENE,71,2.0,6.0,93,0.00,,,0.00,LWC V2.11 B50,2013-05-08 04:21:00,
2013-05-08 00:26:00,59.1,57.1,30.00,NE,36,2.0,7.0,93,0.00,,,0.00,LWC V2.11 B50,2013-05-08 04:26:00,
2013-05-08 00:31:00,59.1,57.1,30.00,East,93,0.0,4.0,93,0.00,,,0.00,LWC V2.11 B50,2013-05-08 04:31:00,
2013-05-08 00:36:00,59.1,57.1,30.00,NE,51,0.0,7.0,93,0.00,,,0.01,LWC V2.11 B50,2013-05-08 04:36:00,
2013-05-08 00:41:00,59.1,57.1,30.00,NE,55,0.0,0.0,93,0.00,,,0.01,LWC V2.11 B50,2013-05-08 04:41:00,
2013-05-08 00:46:00,59.0,57.0,30.00,ESE,115,0.0,0.0,93,0.00,,,0.01,LWC V2.11 B50,2013-05-08 04:46:00,
2013-05-08 00:51:00,59.0,57.0,30.00,SE,125,3.0,4.0,93,0.00,,,0.01,LWC V2.11 B50,2013-05-08 04:51:00,
2013-05-08 00:56:00,58.9,56.9,30.00,NE,42,0.0,6.0,93,0.00,,,0.01,LWC V2.11 B50,2013-05-08 04:56:00,
2013-05-08 01:01:00,58.9,56.9,29.99,ENE,74,3.0,6.0,93,0.00,,,0.01,LWC V2.11 B50,2013-05-08 05:01:00,
2013-05-08 01:06:00,58.9,56.9,29.99,ENE,75,0.0,0.0,93,0.00,,,0.01,LWC V2.11 B50,2013-05-08 05:06:00,
2013-05-08 01:11:00,59.0,57.0,29.99,NE,48,0.0,3.0,93,0.00,,,0.01,LWC V2.11 B50,2013-05-08 05:11:00,
2013-05-08 01:16:00,59.0,57.0,29.99,ENE,60,0.0,6.0,93,0.00,,,0.01,LWC V2.11 B50,2013-05-08 05:16:00,
2013-05-08 01:21:00,59.0,57.3,29.99,ENE,63,3.0,7.0,94,0.00,,,0.01,LWC V2.11 B50,2013-05-08 05:21:00,
2013-05-08 01:26:00,59.0,57.3,29.99,NE,45,0.0,3.0,94,0.00,,,0.01,LWC V2.11 B50,2013-05-08 05:26:00,
2013-05-08 01:31:00,59.0,57.3,29.98,ENE,57,2.0,5.0,94,0.00,,,0.01,LWC V2.11 B50,2013-05-08 05:31:00,
2013-05-08 01:36:00,59.1,57.4,29.98,NE,53,0.0,0.0,94,0.00,,,0.01,LWC V2.11 B50,2013-05-08 05:36:00,
2013-05-08 01:41:00,59.1,57.4,29.98,SE,142,0.0,5.0,94,0.00,,,0.01,LWC V2.11 B50,2013-05-08 05:41:00,
2013-05-08 01:46:00,59.1,57.4,29.98,NE,49,1.0,5.0,94,0.00,,,0.01,LWC V2.11 B50,2013-05-08 05:46:00,
2013-05-08 01:51:00,59.1,57.4,29.98,NNE,26,6.0,6.0,94,0.00,,,0.01,LWC V2.11 B50,2013-05-08 05:51:00,
2013-05-08 01:56:00,59.1,57.4,29.97,ENE,66,0.0,0.0,94,0.00,,,0.01,LWC V2.11 B50,2013-05-08 05:56:00,
2013-05-08 02:00:00,59.1,57.4,29.97,ENE,69,0.0,0.0,94,0.00,,,0.01,LWC V2.11 B50,2013-05-08 06:00:00,
2013-05-08 02:05:00,59.1,57.4,29.98,East,87,0.0,0.0,94,0.00,,,0.01,LWC V2.11 B50,2013-05-08 06:05:00,
2013-05-08 02:10:00,59.2,57.5,29.97,ENE,75,0.0,0.0,94,0.00,,,0.01,LWC V2.11 B50,2013-05-08 06:10:00,
2013-05-08 02:15:00,59.2,57.5,29.97,NE,40,0.0,3.0,94,0.00,,,0.01,LWC V2.11 B50,2013-05-08 06:15:00,
2013-05-08 02:20:00,59.3,57.6,29.97,NE,46,0.0,0.0,94,0.00,,,0.01,LWC V2.11 B50,2013-05-08 06:20:00,
2013-05-08 02:25:00,59.2,57.5,29.96,ESE,107,0.0,0.0,94,0.00,,,0.01,LWC V2.11 B50,2013-05-08 06:25:00,
2013-05-08 02:30:00,59.3,57.6,29.96,NE,44,0.0,4.0,94,0.00,,,0.01,LWC V2.11 B50,2013-05-08 06:30:00,
2013-05-08 02:35:00,59.3,57.6,29.96,ESE,113,0.0,0.0,94,0.00,,,0.01,LWC V2.11 B50,2013-05-08 06:35:00,
2013-05-08 02:40:00,59.3,57.6,29.96,ENE,75,3.0,4.0,94,0.00,,,0.01,LWC V2.11 B50,2013-05-08 06:40:00,
2013-05-08 02:45:00,59.3,57.6,29.96,East,88,0.0,0.0,94,0.00,,,0.01,LWC V2.11 B50,2013-05-08 06:45:00,
2013-05-08 02:50:00,59.3,57.6,29.96,ESE,111,1.0,5.0,94,0.00,,,0.01,LWC V2.11 B50,2013-05-08 06:50:00,
2013-05-08 02:55:00,59.3,57.6,29.96,NE,37,0.0,3.0,94,0.00,,,0.01,LWC V2.11 B50,2013-05-08 06:55:00,
2013-05-08 03:00:00,59.3,57.6,29.96,ENE,72,0.0,3.0,94,0.00,,,0.01,LWC V2.11 B50,2013-05-08 07:00:00,
2013-05-08 03:05:00,59.3,57.6,29.96,ENE,66,0.0,2.0,94,0.00,,,0.01,LWC V2.11 B50,2013-05-08 07:05:00,
2013-05-08 03:10:00,59.2,57.8,29.96,NE,55,3.0,7.0,95,0.00,,,0.01,LWC V2.11 B50,2013-05-08 07:10:00,
2013-05-08 03:15:00,59.2,57.8,29.95,ENE,60,0.0,0.0,95,0.00,,,0.01,LWC V2.11 B50,2013-05-08 07:15:00,
2013-05-08 03:20:00,59.2,57.8,29.95,NNE,13,0.0,3.0,95,0.00,,,0.01,LWC V2.11 B50,2013-05-08 07:20:00,
2013-05-08 03:25:00,59.2,57.8,29.95,NE,55,5.0,5.0,95,0.00,,,0.01,LWC V2.11 B50,2013-05-08 07:25:00,
2013-05-08 03:30:00,59.2,57.8,29.95,ENE,58,3.0,3.0,95,0.22,,,0.03,LWC V2.11 B50,2013-05-08 07:30:00,
2013-05-08 03:35:00,59.2,57.8,29.95,NE,46,0.0,1.0,95,0.09,,,0.03,LWC V2.11 B50,2013-05-08 07:35:00,
2013-05-08 03:40:00,59.2,57.8,29.95,ENE,57,0.0,0.0,95,0.05,,,0.03,LWC V2.11 B50,2013-05-08 07:40:00,
2013-05-08 03:45:00,59.2,57.8,29.94,ENE,67,5.0,5.0,95,0.04,,,0.03,LWC V2.11 B50,2013-05-08 07:45:00,
2013-05-08 03:50:00,59.2,57.8,29.95,NE,49,0.0,0.0,95,0.00,,,0.03,LWC V2.11 B50,2013-05-08 07:50:00,
2013-05-08 03:55:00,59.2,57.8,29.95,East,98,0.0,0.0,95,0.00,,,0.03,LWC V2.11 B50,2013-05-08 07:55:00,
2013-05-08 04:00:00,59.3,57.9,29.95,East,100,0.0,0.0,95,0.00,,,0.03,LWC V2.11 B50,2013-05-08 08:00:00,
2013-05-08 04:05:00,59.3,57.9,29.94,NE,51,2.0,6.0,95,0.00,,,0.03,LWC V2.11 B50,2013-05-08 08:05:00,
2013-05-08 04:10:00,59.4,58.0,29.94,ENE,64,0.0,0.0,95,0.00,,,0.03,LWC V2.11 B50,2013-05-08 08:10:00,
2013-05-08 04:15:00,59.4,58.0,29.94,East,92,0.0,2.0,95,0.00,,,0.03,LWC V2.11 B50,2013-05-08 08:15:00,
2013-05-08 04:20:00,59.4,58.0,29.94,ENE,62,4.0,5.0,95,0.00,,,0.03,LWC V2.11 B50,2013-05-08 08:20:00,
2013-05-08 04:25:00,59.3,57.9,29.94,NNE,32,3.0,3.0,95,0.00,,,0.03,LWC V2.11 B50,2013-05-08 08:25:00,
2013-05-08 04:30:00,59.3,57.9,29.94,NE,55,0.0,4.0,95,0.00,,,0.03,LWC V2.11 B50,2013-05-08 08:30:00,
2013-05-08 04:35:00,59.3,57.9,29.94,ENE,71,4.0,6.0,95,0.00,,,0.03,LWC V2.11 B50,2013-05-08 08:35:00,
2013-05-08 04:40:00,59.4,58.0,29.93,NE,43,2.0,6.0,95,0.00,,,0.03,LWC V2.11 B50,2013-05-08 08:40:00,
2013-05-08 04:45:00,59.4,58.0,29.94,NE,42,0.0,0.0,95,0.00,,,0.03,LWC V2.11 B50,2013-05-08 08:45:00,
2013-05-08 04:50:00,59.5,58.1,29.93,NE,55,0.0,0.0,95,0.00,,,0.03,LWC V2.11 B50,2013-05-08 08:50:00,
2013-05-08 04:55:00,59.5,58.4,29.93,NE,47,0.0,5.0,96,0.00,,,0.03,LWC V2.11 B50,2013-05-08 08:55:00,
2013-05-08 05:00:00,59.6,58.5,29.94,ENE,64,1.0,3.0,96,0.00,,,0.03,LWC V2.11 B50,2013-05-08 09:00:00,
2013-05-08 05:05:00,59.7,58.6,29.94,ESE,109,1.0,5.0,96,0.57,,,0.05,LWC V2.11 B50,2013-05-08 09:05:00,
2013-05-08 05:10:00,59.8,58.7,29.94,ESE,107,0.0,5.0,96,0.22,,,0.06,LWC V2.11 B50,2013-05-08 09:10:00,
2013-05-08 05:15:00,59.8,58.7,29.94,East,93,0.0,2.0,96,0.08,,,0.06,LWC V2.11 B50,2013-05-08 09:15:00,
2013-05-08 05:20:00,59.9,58.8,29.94,ENE,69,0.0,4.0,96,0.05,,,0.06,LWC V2.11 B50,2013-05-08 09:20:00,
2013-05-08 05:25:00,60.0,58.9,29.94,NE,42,0.0,4.0,96,0.00,,,0.06,LWC V2.11 B50,2013-05-08 09:25:00,
2013-05-08 05:30:00,60.0,58.9,29.94,ENE,77,0.0,0.0,96,0.00,,,0.06,LWC V2.11 B50,2013-05-08 09:30:00,
2013-05-08 05:35:00,60.1,59.0,29.94,ENE,73,0.0,0.0,96,0.00,,,0.06,LWC V2.11 B50,2013-05-08 09:35:00,
2013-05-08 05:40:00,60.1,59.0,29.94,NE,41,0.0,5.0,96,0.00,,,0.06,LWC V2.11 B50,2013-05-08 09:40:00,
2013-05-08 05:45:00,60.2,59.1,29.94,NE,38,0.0,5.0,96,0.00,,,0.06,LWC V2.11 B50,2013-05-08 09:45:00,
2013-05-08 05:50:00,60.2,59.1,29.94,ESE,106,3.0,5.0,96,0.00,,,0.06,LWC V2.11 B50,2013-05-08 09:50:00,
2013-05-08 05:55:00,60.2,59.1,29.94,NE,49,0.0,4.0,96,0.00,,,0.06,LWC V2.11 B50,2013-05-08 09:55:00,
2013-05-08 06:00:00,60.2,59.1,29.94,NE,34,0.0,4.0,96,0.00,,,0.06,LWC V2.11 B50,2013-05-08 10:00:00,
2013-05-08 06:05:00,60.3,59.2,29.94,ESE,103,1.0,5.0,96,0.00,,,0.07,LWC V2.11 B50,2013-05-08 10:05:00,
2013-05-08 06:10:00,60.3,59.2,29.94,ESE,104,0.0,0.0,96,0.00,,,0.07,LWC V2.11 B50,2013-05-08 10:10:00,
2013-05-08 06:15:00,60.3,59.2,29.94,ENE,69,1.0,7.0,96,0.00,,,0.07,LWC V2.11 B50,2013-05-08 10:15:00,
2013-05-08 06:20:00,60.3,59.2,29.94,NNE,30,0.0,2.0,96,0.00,,,0.07,LWC V2.11 B50,2013-05-08 10:20:00,
2013-05-08 06:25:00,60.3,59.2,29.94,ENE,76,0.0,0.0,96,0.00,,,0.07,LWC V2.11 B50,2013-05-08 10:25:00,
2013-05-08 06:30:00,60.3,59.2,29.95,NE,48,1.0,6.0,96,0.00,,,0.07,LWC V2.11 B50,2013-05-08 10:30:00,
2013-05-08 06:35:00,60.3,59.2,29.95,NE,52,0.0,4.0,96,0.00,,,0.07,LWC V2.11 B50,2013-05-08 10:35:00,
2013-05-08 06:40:00,60.2,59.1,29.95,East,94,0.0,7.0,96,0.00,,,0.07,LWC V2.11 B50,2013-05-08 10:40:00,
2013-05-08 06:45:00,60.2,59.1,29.95,NE,46,5.0,5.0,96,0.00,,,0.07,LWC V2.11 B50,2013-05-08 10:45:00,
2013-05-08 06:50:00,60.2,59.1,29.95,SE,128,0.0,0.0,96,0.00,,,0.07,LWC V2.11 B50,2013-05-08 10:50:00,
2013-05-08 06:55:00,60.3,59.2,29.95,NNE,26,0.0,1.0,96,0.00,,,0.08,LWC V2.11 B50,2013-05-08 10:55:00,
2013-05-08 07:00:00,60.3,59.2,29.95,NNE,26,0.0,0.0,96,0.00,,,0.08,LWC V2.11 B50,2013-05-08 11:00:00,
2013-05-08 07:05:00,60.3,59.2,29.95,NE,51,2.0,9.0,96,0.00,,,0.08,LWC V2.11 B50,2013-05-08 11:05:00,
2013-05-08 07:10:00,60.3,59.2,29.95,NE,52,0.0,0.0,96,0.00,,,0.08,LWC V2.11 B50,2013-05-08 11:10:00,
2013-05-08 07:15:00,60.3,59.2,29.95,NE,45,0.0,0.0,96,0.00,,,0.09,LWC V2.11 B50,2013-05-08 11:15:00,
2013-05-08 07:20:00,60.4,59.3,29.95,NE,45,0.0,0.0,96,0.23,,,0.10,LWC V2.11 B50,2013-05-08 11:20:00,
2013-05-08 07:25:00,60.4,59.3,29.95,ENE,58,0.0,0.0,96,0.11,,,0.11,LWC V2.11 B50,2013-05-08 11:25:00,
2013-05-08 07:30:00,60.4,59.3,29.95,ENE,77,3.0,4.0,96,0.06,,,0.11,LWC V2.11 B50,2013-05-08 11:30:00,
2013-05-08 07:35:00,60.5,59.4,29.95,NE,50,0.0,0.0,96,0.04,,,0.11,LWC V2.11 B50,2013-05-08 11:35:00,
2013-05-08 07:40:00,60.5,59.4,29.95,ENE,63,0.0,0.0,96,0.00,,,0.11,LWC V2.11 B50,2013-05-08 11:40:00,
2013-05-08 07:45:00,60.5,59.4,29.95,East,86,0.0,0.0,96,0.00,,,0.11,LWC V2.11 B50,2013-05-08 11:45:00,
2013-05-08 07:50:00,60.5,59.4,29.95,East,101,3.0,5.0,96,0.00,,,0.12,LWC V2.11 B50,2013-05-08 11:50:00,
2013-05-08 07:55:00,60.5,59.4,29.95,ENE,71,0.0,4.0,96,0.09,,,0.12,LWC V2.11 B50,2013-05-08 11:55:00,
2013-05-08 08:00:00,60.6,59.5,29.95,ENE,61,0.0,4.0,96,0.09,,,0.13,LWC V2.11 B50,2013-05-08 12:00:00,
2013-05-08 08:05:00,60.6,59.5,29.95,ENE,61,0.0,5.0,96,0.06,,,0.13,LWC V2.11 B50,2013-05-08 12:05:00,
2013-05-08 08:10:00,60.7,59.5,29.94,ENE,61,0.0,7.0,96,0.04,,,0.13,LWC V2.11 B50,2013-05-08 12:10:00,
2013-05-08 08:15:00,60.8,59.7,29.94,NE,38,1.0,5.0,96,0.00,,,0.13,LWC V2.11 B50,2013-05-08 12:15:00,
2013-05-08 08:20:00,60.8,59.7,29.94,NE,48,0.0,0.0,96,0.00,,,0.13,LWC V2.11 B50,2013-05-08 12:20:00,
2013-05-08 08:25:00,60.8,59.7,29.94,SSE,155,4.0,4.0,96,0.00,,,0.13,LWC V2.11 B50,2013-05-08 12:25:00,
2013-05-08 08:30:00,60.8,59.7,29.93,NE,41,2.0,7.0,96,0.00,,,0.13,LWC V2.11 B50,2013-05-08 12:30:00,
2013-05-08 08:35:00,60.9,59.7,29.93,NE,40,3.0,6.0,96,0.00,,,0.13,LWC V2.11 B50,2013-05-08 12:35:00,
2013-05-08 08:40:00,60.9,59.7,29.94,ESE,118,0.0,3.0,96,0.00,,,0.13,LWC V2.11 B50,2013-05-08 12:40:00,
2013-05-08 08:45:00,61.0,59.8,29.94,ENE,57,4.0,4.0,96,0.00,,,0.13,LWC V2.11 B50,2013-05-08 12:45:00,
2013-05-08 08:50:00,60.9,59.7,29.94,East,80,0.0,0.0,96,0.00,,,0.13,LWC V2.11 B50,2013-05-08 12:50:00,
2013-05-08 08:55:00,60.7,59.5,29.94,ENE,69,0.0,0.0,96,0.00,,,0.13,LWC V2.11 B50,2013-05-08 12:55:00,
2013-05-08 09:00:00,60.6,59.5,29.94,NNE,21,0.0,0.0,96,0.00,,,0.13,LWC V2.11 B50,2013-05-08 13:00:00,
2013-05-08 09:05:00,60.4,59.3,29.94,East,90,0.0,0.0,96,0.00,,,0.13,LWC V2.11 B50,2013-05-08 13:05:00,
2013-05-08 09:10:00,60.2,59.1,29.94,ENE,74,0.0,4.0,96,0.00,,,0.13,LWC V2.11 B50,2013-05-08 13:10:00,
2013-05-08 09:15:00,60.1,59.0,29.94,ENE,63,0.0,0.0,96,0.00,,,0.13,LWC V2.11 B50,2013-05-08 13:15:00,
2013-05-08 09:20:00,60.1,59.0,29.94,ENE,63,0.0,6.0,96,0.00,,,0.14,LWC V2.11 B50,2013-05-08 13:20:00,
2013-05-08 09:25:00,60.0,58.9,29.94,East,90,2.0,3.0,96,0.00,,,0.14,LWC V2.11 B50,2013-05-08 13:25:00,
2013-05-08 09:30:00,59.9,58.8,29.94,NE,51,0.0,0.0,96,0.30,,,0.17,LWC V2.11 B50,2013-05-08 13:30:00,
2013-05-08 09:35:00,59.8,58.7,29.95,NE,42,0.0,0.0,96,0.37,,,0.20,LWC V2.11 B50,2013-05-08 13:35:00,
2013-05-08 09:40:00,59.8,58.7,29.95,NNE,19,3.0,9.0,96,0.24,,,0.24,LWC V2.11 B50,2013-05-08 13:40:00,
2013-05-08 09:44:00,59.7,58.6,29.95,NE,54,2.0,4.0,96,0.18,,,0.25,LWC V2.11 B50,2013-05-08 13:44:00,
2013-05-08 09:49:00,59.6,58.5,29.94,ENE,71,0.0,0.0,96,0.12,,,0.26,LWC V2.11 B50,2013-05-08 13:49:00,
2013-05-08 09:54:00,59.6,58.5,29.95,NE,52,0.0,7.0,96,0.07,,,0.27,LWC V2.11 B50,2013-05-08 13:54:00,
2013-05-08 09:59:00,59.5,58.4,29.95,NE,52,2.0,6.0,96,0.07,,,0.27,LWC V2.11 B50,2013-05-08 13:59:00,
2013-05-08 10:04:00,59.4,58.3,29.95,SE,129,2.0,5.0,96,0.06,,,0.27,LWC V2.11 B50,2013-05-08 14:04:00,
2013-05-08 10:09:00,59.3,58.2,29.95,NNE,32,2.0,7.0,96,0.05,,,0.28,LWC V2.11 B50,2013-05-08 14:09:00,
2013-05-08 10:14:00,59.3,58.2,29.95,NE,51,3.0,5.0,96,0.17,,,0.30,LWC V2.11 B50,2013-05-08 14:14:00,
2013-05-08 10:19:00,59.3,58.2,29.96,ENE,63,0.0,5.0,96,0.13,,,0.31,LWC V2.11 B50,2013-05-08 14:19:00,
2013-05-08 10:24:00,59.3,58.2,29.95,NE,54,0.0,4.0,96,0.17,,,0.32,LWC V2.11 B50,2013-05-08 14:24:00,
2013-05-08 10:29:00,59.3,58.2,29.95,ESE,110,4.0,7.0,96,0.07,,,0.32,LWC V2.11 B50,2013-05-08 14:29:00,
2013-05-08 10:34:00,59.3,58.2,29.95,ENE,75,2.0,10.0,96,0.04,,,0.32,LWC V2.11 B50,2013-05-08 14:34:00,
2013-05-08 10:39:00,59.4,58.3,29.94,ENE,57,2.0,8.0,96,0.00,,,0.32,LWC V2.11 B50,2013-05-08 14:39:00,
2013-05-08 10:44:00,59.8,58.7,29.95,ENE,74,4.0,5.0,96,0.00,,,0.32,LWC V2.11 B50,2013-05-08 14:44:00,
2013-05-08 10:49:00,59.9,58.8,29.95,NE,46,1.0,9.0,96,0.00,,,0.32,LWC V2.11 B50,2013-05-08 14:49:00,
2013-05-08 10:54:00,60.0,58.9,29.95,NE,51,0.0,0.0,96,0.00,,,0.32,LWC V2.11 B50,2013-05-08 14:54:00,
2013-05-08 10:59:00,60.2,59.1,29.96,ENE,64,0.0,0.0,96,0.00,,,0.32,LWC V2.11 B50,2013-05-08 14:59:00,
2013-05-08 11:04:00,60.9,59.7,29.96,ESE,108,0.0,0.0,96,0.00,,,0.32,LWC V2.11 B50,2013-05-08 15:04:00,
2013-05-08 11:09:00,61.1,59.9,29.96,NE,34,0.0,0.0,96,0.00,,,0.32,LWC V2.11 B50,2013-05-08 15:09:00,
2013-05-08 11:14:00,61.4,60.2,29.96,East,89,3.0,6.0,96,0.00,,,0.32,LWC V2.11 B50,2013-05-08 15:14:00,
2013-05-08 11:19:00,61.6,60.4,29.96,NE,42,3.0,3.0,96,0.00,,,0.32,LWC V2.11 B50,2013-05-08 15:19:00,
2013-05-08 11:24:00,62.1,60.9,29.96,NNE,32,5.0,5.0,96,0.00,,,0.32,LWC V2.11 B50,2013-05-08 15:24:00,
2013-05-08 11:29:00,62.3,60.8,29.96,NE,46,0.0,1.0,95,0.00,,,0.32,LWC V2.11 B50,2013-05-08 15:29:00,
2013-05-08 11:34:00,62.5,61.0,29.96,ENE,59,0.0,0.0,95,0.00,,,0.32,LWC V2.11 B50,2013-05-08 15:34:00,
2013-05-08 11:39:00,63.0,61.5,29.95,SSE,159,0.0,0.0,95,0.00,,,0.32,LWC V2.11 B50,2013-05-08 15:39:00,
2013-05-08 11:44:00,63.2,61.4,29.95,ESE,120,3.0,5.0,94,0.00,,,0.32,LWC V2.11 B50,2013-05-08 15:44:00,
2013-05-08 11:49:00,62.9,60.8,29.95,NE,34,4.0,4.0,93,0.00,,,0.32,LWC V2.11 B50,2013-05-08 15:49:00,
2013-05-08 11:54:00,62.8,60.4,29.95,East,82,3.0,7.0,92,0.00,,,0.32,LWC V2.11 B50,2013-05-08 15:54:00,
2013-05-08 11:59:00,62.8,60.4,29.94,NE,48,2.0,5.0,92,0.00,,,0.32,LWC V2.11 B50,2013-05-08 15:59:00,
2013-05-08 12:04:00,62.8,60.1,29.94,NE,42,0.0,0.0,91,0.00,,,0.32,LWC V2.11 B50,2013-05-08 16:04:00,
2013-05-08 12:09:00,62.9,60.2,29.94,SE,130,1.0,4.0,91,0.00,,,0.32,LWC V2.11 B50,2013-05-08 16:09:00,
2013-05-08 12:14:00,62.9,60.2,29.95,East,85,3.0,5.0,91,0.00,,,0.32,LWC V2.11 B50,2013-05-08 16:14:00,
2013-05-08 12:19:00,62.7,60.0,29.95,ENE,57,0.0,0.0,91,0.00,,,0.32,LWC V2.11 B50,2013-05-08 16:19:00,
2013-05-08 12:24:00,62.6,59.9,29.94,ENE,60,2.0,2.0,91,0.00,,,0.32,LWC V2.11 B50,2013-05-08 16:24:00,
2013-05-08 12:29:00,62.5,59.8,29.94,ENE,70,1.0,3.0,91,0.00,,,0.33,LWC V2.11 B50,2013-05-08 16:29:00,
2013-05-08 12:34:00,62.3,59.6,29.95,NE,40,0.0,3.0,91,0.00,,,0.33,LWC V2.11 B50,2013-05-08 16:34:00,
2013-05-08 12:39:00,62.4,60.0,29.94,NE,42,2.0,4.0,92,0.00,,,0.33,LWC V2.11 B50,2013-05-08 16:39:00,
2013-05-08 12:44:00,62.5,60.1,29.94,ENE,61,0.0,1.0,92,0.00,,,0.33,LWC V2.11 B50,2013-05-08 16:44:00,
2013-05-08 12:49:00,62.9,60.8,29.94,East,84,0.0,0.0,93,0.00,,,0.33,LWC V2.11 B50,2013-05-08 16:49:00,
2013-05-08 12:54:00,63.1,61.0,29.94,SE,128,0.0,7.0,93,0.00,,,0.33,LWC V2.11 B50,2013-05-08 16:54:00,
2013-05-08 12:59:00,62.9,60.5,29.94,ENE,58,2.0,4.0,92,0.00,,,0.33,LWC V2.11 B50,2013-05-08 16:59:00,
2013-05-08 13:04:00,63.0,60.6,29.94,NNE,25,0.0,0.0,92,0.00,,,0.33,LWC V2.11 B50,2013-05-08 17:04:00,
2013-05-08 13:09:00,63.4,61.3,29.93,NE,36,0.0,1.0,93,0.00,,,0.33,LWC V2.11 B50,2013-05-08 17:09:00,
2013-05-08 13:14:00,63.5,61.1,29.93,NNE,32,6.0,6.0,92,0.00,,,0.33,LWC V2.11 B50,2013-05-08 17:14:00,
2013-05-08 13:19:00,63.4,61.0,29.93,ENE,72,0.0,0.0,92,0.00,,,0.33,LWC V2.11 B50,2013-05-08 17:19:00,
2013-05-08 13:24:00,63.5,61.1,29.93,NE,43,0.0,0.0,92,0.00,,,0.33,LWC V2.11 B50,2013-05-08 17:24:00,
2013-05-08 13:29:00,63.6,61.2,29.93,NNW,327,0.0,4.0,92,0.00,,,0.33,LWC V2.11 B50,2013-05-08 17:29:00,
2013-05-08 13:34:00,63.7,61.0,29.93,SE,142,4.0,5.0,91,0.00,,,0.33,LWC V2.11 B50,2013-05-08 17:34:00,
2013-05-08 13:39:00,64.1,61.7,29.93,NE,55,3.0,5.0,92,0.00,,,0.33,LWC V2.11 B50,2013-05-08 17:39:00,
2013-05-08 13:44:00,64.5,61.8,29.93,NNE,33,4.0,7.0,91,0.00,,,0.33,LWC V2.11 B50,2013-05-08 17:44:00,
2013-05-08 13:49:00,64.4,61.1,29.93,NE,42,0.0,0.0,89,0.00,,,0.33,LWC V2.11 B50,2013-05-08 17:49:00,
2013-05-08 13:54:00,64.0,60.4,29.93,NNE,33,4.0,6.0,88,0.00,,,0.33,LWC V2.11 B50,2013-05-08 17:54:00,
2013-05-08 13:59:00,63.6,60.3,29.93,NNE,25,0.0,0.0,89,0.00,,,0.34,LWC V2.11 B50,2013-05-08 17:59:00,
2013-05-08 14:04:00,63.4,60.4,29.93,WNW,302,0.0,0.0,90,1.14,,,0.46,LWC V2.11 B50,2013-05-08 18:04:00,
2013-05-08 14:09:00,63.2,60.5,29.93,WNW,302,0.0,0.0,91,0.27,,,0.50,LWC V2.11 B50,2013-05-08 18:09:00,
2013-05-08 14:14:00,63.2,60.8,29.92,NW,315,0.0,0.0,92,0.15,,,0.51,LWC V2.11 B50,2013-05-08 18:14:00,
2013-05-08 14:19:00,63.2,60.8,29.92,North,350,0.0,1.0,92,0.07,,,0.51,LWC V2.11 B50,2013-05-08 18:19:00,
2013-05-08 14:24:00,63.1,61.0,29.92,NNE,32,0.0,0.0,93,0.04,,,0.51,LWC V2.11 B50,2013-05-08 18:24:00,
2013-05-08 14:29:00,63.1,61.0,29.92,NE,48,0.0,0.0,93,0.00,,,0.51,LWC V2.11 B50,2013-05-08 18:29:00,
2013-05-08 14:34:00,63.3,61.2,29.92,NE,48,0.0,0.0,93,0.00,,,0.51,LWC V2.11 B50,2013-05-08 18:34:00,
2013-05-08 14:39:00,63.6,61.8,29.92,NE,49,0.0,0.0,94,0.00,,,0.51,LWC V2.11 B50,2013-05-08 18:39:00,
2013-05-08 14:44:00,64.0,62.2,29.92,NE,49,0.0,3.0,94,0.00,,,0.51,LWC V2.11 B50,2013-05-08 18:44:00,
2013-05-08 14:49:00,64.2,62.4,29.92,NE,37,0.0,0.0,94,0.00,,,0.51,LWC V2.11 B50,2013-05-08 18:49:00,
2013-05-08 14:54:00,64.4,62.6,29.91,NNW,327,0.0,0.0,94,0.00,,,0.51,LWC V2.11 B50,2013-05-08 18:54:00,
2013-05-08 14:59:00,65.1,63.3,29.92,NNW,327,0.0,0.0,94,0.00,,,0.51,LWC V2.11 B50,2013-05-08 18:59:00,
2013-05-08 15:04:00,65.2,63.1,29.91,SE,129,0.0,0.0,93,0.00,,,0.51,LWC V2.11 B50,2013-05-08 19:04:00,
2013-05-08 15:09:00,65.0,62.6,29.91,NE,40,0.0,0.0,92,0.00,,,0.51,LWC V2.11 B50,2013-05-08 19:09:00,
2013-05-08 15:14:00,65.1,62.7,29.90,NE,40,0.0,0.0,92,0.00,,,0.51,LWC V2.11 B50,2013-05-08 19:14:00,
2013-05-08 15:19:00,65.2,62.8,29.89,NNE,17,0.0,0.0,92,0.00,,,0.51,LWC V2.11 B50,2013-05-08 19:19:00,
2013-05-08 15:24:00,65.2,62.5,29.90,ENE,67,1.0,3.0,91,0.00,,,0.51,LWC V2.11 B50,2013-05-08 19:24:00,
2013-05-08 15:29:00,65.2,62.5,29.90,ENE,66,5.0,7.0,91,0.00,,,0.51,LWC V2.11 B50,2013-05-08 19:29:00,
2013-05-08 15:34:00,65.0,62.0,29.89,ENE,69,2.0,6.0,90,0.00,,,0.51,LWC V2.11 B50,2013-05-08 19:34:00,
2013-05-08 15:39:00,65.1,62.4,29.89,ENE,59,0.0,0.0,91,0.00,,,0.51,LWC V2.11 B50,2013-05-08 19:39:00,
2013-05-08 15:44:00,65.5,62.8,29.90,ENE,74,0.0,0.0,91,0.00,,,0.51,LWC V2.11 B50,2013-05-08 19:44:00,
2013-05-08 15:49:00,65.8,62.8,29.89,NE,36,4.0,4.0,90,0.00,,,0.51,LWC V2.11 B50,2013-05-08 19:49:00,
2013-05-08 15:54:00,66.1,62.8,29.89,NE,51,3.0,4.0,89,0.00,,,0.51,LWC V2.11 B50,2013-05-08 19:54:00,
2013-05-08 15:59:00,66.5,63.2,29.89,NE,49,1.0,4.0,89,0.00,,,0.51,LWC V2.11 B50,2013-05-08 19:59:00,
2013-05-08 16:04:00,66.8,63.1,29.89,ESE,111,0.0,3.0,88,0.00,,,0.51,LWC V2.11 B50,2013-05-08 20:04:00,
2013-05-08 16:09:00,67.3,63.3,29.89,NNE,33,0.0,0.0,87,0.00,,,0.51,LWC V2.11 B50,2013-05-08 20:09:00,
2013-05-08 16:14:00,67.5,62.8,29.89,ENE,60,1.0,4.0,85,0.00,,,0.51,LWC V2.11 B50,2013-05-08 20:14:00,
2013-05-08 16:19:00,68.0,63.3,29.89,SE,128,0.0,2.0,85,0.00,,,0.51,LWC V2.11 B50,2013-05-08 20:19:00,
2013-05-08 16:24:00,68.2,62.8,29.89,SE,130,0.0,0.0,83,0.00,,,0.51,LWC V2.11 B50,2013-05-08 20:24:00,
2013-05-08 16:29:00,68.4,63.0,29.89,East,83,4.0,4.0,83,0.00,,,0.51,LWC V2.11 B50,2013-05-08 20:29:00,
2013-05-08 16:34:00,68.5,62.8,29.88,NE,50,0.0,0.0,82,0.00,,,0.51,LWC V2.11 B50,2013-05-08 20:34:00,
2013-05-08 16:39:00,68.8,63.1,29.88,NE,38,5.0,5.0,82,0.00,,,0.51,LWC V2.11 B50,2013-05-08 20:39:00,
2013-05-08 16:44:00,69.0,62.2,29.88,NNE,22,0.0,3.0,79,0.00,,,0.51,LWC V2.11 B50,2013-05-08 20:44:00,
2013-05-08 16:49:00,69.2,62.4,29.88,East,92,0.0,0.0,79,0.00,,,0.51,LWC V2.11 B50,2013-05-08 20:49:00,
2013-05-08 16:54:00,69.5,62.3,29.88,NE,52,1.0,5.0,78,0.00,,,0.51,LWC V2.11 B50,2013-05-08 20:54:00,
2013-05-08 16:59:00,69.7,62.2,29.88,South,171,0.0,3.0,77,0.00,,,0.51,LWC V2.11 B50,2013-05-08 20:59:00,
2013-05-08 17:04:00,69.8,61.9,29.88,NE,51,0.0,2.0,76,0.00,,,0.51,LWC V2.11 B50,2013-05-08 21:04:00,
2013-05-08 17:09:00,69.9,62.0,29.88,SSW,192,1.0,3.0,76,0.00,,,0.51,LWC V2.11 B50,2013-05-08 21:09:00,
2013-05-08 17:14:00,70.0,62.4,29.87,South,191,0.0,0.0,77,0.00,,,0.51,LWC V2.11 B50,2013-05-08 21:14:00,
2013-05-08 17:19:00,70.2,61.9,29.88,West,263,0.0,0.0,75,0.00,,,0.51,LWC V2.11 B50,2013-05-08 21:19:00,
2013-05-08 17:24:00,70.6,62.3,29.88,West,263,0.0,0.0,75,0.00,,,0.51,LWC V2.11 B50,2013-05-08 21:24:00,
2013-05-08 17:29:00,71.1,62.0,29.88,SSW,192,0.0,0.0,73,0.00,,,0.51,LWC V2.11 B50,2013-05-08 21:29:00,
2013-05-08 17:34:00,71.0,60.7,29.88,SSW,206,0.0,4.0,70,0.00,,,0.51,LWC V2.11 B50,2013-05-08 21:34:00,
2013-05-08 17:39:00,70.6,60.3,29.88,NNE,16,0.0,3.0,70,0.00,,,0.51,LWC V2.11 B50,2013-05-08 21:39:00,
2013-05-08 17:44:00,70.6,61.5,29.87,ENE,69,1.0,4.0,73,0.00,,,0.51,LWC V2.11 B50,2013-05-08 21:44:00,
2013-05-08 17:49:00,70.4,60.9,29.87,East,93,0.0,0.0,72,0.00,,,0.51,LWC V2.11 B50,2013-05-08 21:49:00,
2013-05-08 17:54:00,70.1,60.6,29.87,ESE,117,0.0,4.0,72,0.00,,,0.51,LWC V2.11 B50,2013-05-08 21:54:00,
2013-05-08 17:59:00,69.7,61.0,29.87,ENE,61,0.0,0.0,74,0.00,,,0.51,LWC V2.11 B50,2013-05-08 21:59:00,
2013-05-08 18:04:00,69.2,60.2,29.87,NE,38,0.0,0.0,73,0.00,,,0.51,LWC V2.11 B50,2013-05-08 22:04:00,
2013-05-08 18:09:00,68.8,60.2,29.87,ENE,72,0.0,0.0,74,0.00,,,0.51,LWC V2.11 B50,2013-05-08 22:09:00,
2013-05-08 18:14:00,68.5,60.3,29.87,East,80,0.0,0.0,75,0.00,,,0.51,LWC V2.11 B50,2013-05-08 22:14:00,
2013-05-08 18:19:00,68.3,60.8,29.87,East,80,0.0,0.0,77,0.00,,,0.51,LWC V2.11 B50,2013-05-08 22:19:00,
2013-05-08 18:24:00,68.1,60.6,29.87,East,80,0.0,0.0,77,0.00,,,0.51,LWC V2.11 B50,2013-05-08 22:24:00,
2013-05-08 18:29:00,67.7,60.9,29.87,SSW,202,4.0,6.0,79,0.00,,,0.52,LWC V2.11 B50,2013-05-08 22:29:00,
2013-05-08 18:34:00,67.1,59.3,29.87,SSW,203,4.0,4.0,76,0.00,,,0.52,LWC V2.11 B50,2013-05-08 22:34:00,
2013-05-08 18:39:00,66.9,59.4,29.87,SSW,204,0.0,0.0,77,0.00,,,0.52,LWC V2.11 B50,2013-05-08 22:39:00,
2013-05-08 18:44:00,66.6,59.5,29.87,SSW,211,0.0,0.0,78,0.00,,,0.52,LWC V2.11 B50,2013-05-08 22:44:00,
2013-05-08 18:49:00,66.0,59.6,29.88,SSW,202,8.0,12.0,80,0.00,,,0.52,LWC V2.11 B50,2013-05-08 22:49:00,
2013-05-08 18:54:00,65.2,58.9,29.88,SSW,211,0.0,2.0,80,0.00,,,0.53,LWC V2.11 B50,2013-05-08 22:54:00,
2013-05-08 18:59:00,64.4,58.4,29.88,SSW,212,2.0,4.0,81,0.00,,,0.53,LWC V2.11 B50,2013-05-08 22:59:00,
2013-05-08 19:04:00,63.9,58.3,29.88,SW,215,0.0,0.0,82,0.00,,,0.53,LWC V2.11 B50,2013-05-08 23:04:00,
2013-05-08 19:09:00,63.6,58.3,29.89,SW,215,0.0,0.0,83,0.00,,,0.53,LWC V2.11 B50,2013-05-08 23:09:00,
2013-05-08 19:14:00,63.5,58.6,29.89,SW,215,0.0,0.0,84,0.00,,,0.53,LWC V2.11 B50,2013-05-08 23:14:00,
2013-05-08 19:19:00,63.4,58.8,29.89,SW,215,0.0,0.0,85,0.00,,,0.53,LWC V2.11 B50,2013-05-08 23:19:00,
2013-05-08 19:24:00,63.4,59.1,29.89,SW,215,0.0,0.0,86,0.00,,,0.53,LWC V2.11 B50,2013-05-08 23:24:00,
2013-05-08 19:29:00,63.4,59.5,29.89,SW,215,0.0,0.0,87,0.00,,,0.53,LWC V2.11 B50,2013-05-08 23:29:00,
2013-05-08 19:34:00,63.2,59.3,29.89,SW,215,0.0,0.0,87,0.00,,,0.53,LWC V2.11 B50,2013-05-08 23:34:00,
2013-05-08 19:39:00,63.1,59.5,29.89,SW,215,0.0,0.0,88,0.00,,,0.53,LWC V2.11 B50,2013-05-08 23:39:00,
2013-05-08 19:44:00,62.9,59.3,29.90,SW,215,0.0,0.0,88,0.00,,,0.53,LWC V2.11 B50,2013-05-08 23:44:00,
2013-05-08 19:49:00,62.8,59.5,29.90,SW,215,0.0,0.0,89,0.00,,,0.53,LWC V2.11 B50,2013-05-08 23:49:00,
2013-05-08 19:54:00,62.6,59.3,29.90,SW,215,0.0,0.0,89,0.00,,,0.54,LWC V2.11 B50,2013-05-08 23:54:00,
2013-05-08 19:59:00,62.4,59.1,29.91,SW,215,0.0,0.0,89,0.00,,,0.54,LWC V2.11 B50,2013-05-08 23:59:00,
2013-05-08 20:04:00,62.3,59.3,29.91,SW,215,0.0,0.0,90,0.49,,,0.56,LWC V2.11 B50,2013-05-09 00:04:00,
2013-05-08 20:09:00,62.1,59.1,29.91,SW,215,0.0,0.0,90,0.11,,,0.56,LWC V2.11 B50,2013-05-09 00:09:00,
2013-05-08 20:14:00,62.0,59.0,29.91,SW,215,0.0,0.0,90,0.06,,,0.56,LWC V2.11 B50,2013-05-09 00:14:00,
2013-05-08 20:19:00,61.9,58.9,29.91,SW,215,0.0,0.0,90,0.04,,,0.56,LWC V2.11 B50,2013-05-09 00:19:00,
2013-05-08 20:24:00,61.7,59.0,29.91,SW,215,0.0,0.0,91,0.00,,,0.56,LWC V2.11 B50,2013-05-09 00:24:00,
2013-05-08 20:29:00,61.6,58.9,29.91,SW,215,0.0,0.0,91,0.00,,,0.56,LWC V2.11 B50,2013-05-09 00:29:00,
2013-05-08 20:34:00,61.4,58.7,29.91,SW,215,0.0,0.0,91,0.00,,,0.56,LWC V2.11 B50,2013-05-09 00:34:00,
2013-05-08 20:39:00,61.2,58.5,29.91,SW,215,0.0,0.0,91,0.00,,,0.56,LWC V2.11 B50,2013-05-09 00:39:00,
2013-05-08 20:44:00,61.1,58.8,29.92,SW,215,0.0,0.0,92,0.00,,,0.56,LWC V2.11 B50,2013-05-09 00:44:00,
2013-05-08 20:49:00,60.8,58.5,29.92,SW,215,0.0,0.0,92,0.00,,,0.56,LWC V2.11 B50,2013-05-09 00:49:00,
2013-05-08 20:54:00,60.6,58.3,29.92,SW,215,0.0,0.0,92,0.00,,,0.56,LWC V2.11 B50,2013-05-09 00:54:00,
2013-05-08 20:59:00,60.4,58.1,29.92,SW,215,0.0,0.0,92,0.00,,,0.56,LWC V2.11 B50,2013-05-09 00:59:00,
2013-05-08 21:04:00,60.2,57.9,29.92,SW,215,0.0,0.0,92,0.00,,,0.56,LWC V2.11 B50,2013-05-09 01:04:00,
2013-05-08 21:09:00,60.2,57.9,29.92,SW,215,0.0,0.0,92,0.00,,,0.56,LWC V2.11 B50,2013-05-09 01:09:00,
2013-05-08 21:14:00,60.1,58.1,29.93,SW,215,0.0,0.0,93,0.00,,,0.56,LWC V2.11 B50,2013-05-09 01:14:00,
2013-05-08 21:19:00,60.0,58.0,29.93,SW,215,0.0,0.0,93,0.00,,,0.56,LWC V2.11 B50,2013-05-09 01:19:00,
2013-05-08 21:24:00,60.0,58.0,29.93,SW,215,0.0,0.0,93,0.00,,,0.56,LWC V2.11 B50,2013-05-09 01:24:00,
2013-05-08 21:29:00,59.9,57.9,29.93,SW,215,0.0,0.0,93,0.00,,,0.56,LWC V2.11 B50,2013-05-09 01:29:00,
2013-05-08 21:34:00,59.8,57.8,29.93,SW,215,0.0,0.0,93,0.00,,,0.56,LWC V2.11 B50,2013-05-09 01:34:00,
2013-05-08 21:39:00,59.8,57.8,29.93,SW,215,0.0,0.0,93,0.00,,,0.56,LWC V2.11 B50,2013-05-09 01:39:00,
2013-05-08 21:44:00,59.6,57.6,29.94,SW,215,0.0,0.0,93,0.00,,,0.56,LWC V2.11 B50,2013-05-09 01:44:00,
2013-05-08 21:49:00,59.5,57.5,29.94,SW,215,0.0,0.0,93,0.00,,,0.56,LWC V2.11 B50,2013-05-09 01:49:00,
2013-05-08 21:53:00,59.5,57.5,29.94,SW,215,0.0,0.0,93,0.00,,,0.56,LWC V2.11 B50,2013-05-09 01:53:00,
2013-05-08 21:58:00,59.4,57.4,29.94,SW,215,0.0,0.0,93,0.00,,,0.56,LWC V2.11 B50,2013-05-09 01:58:00,
2013-05-08 22:03:00,59.4,57.4,29.93,SW,215,0.0,0.0,93,0.00,,,0.56,LWC V2.11 B50,2013-05-09 02:03:00,
2013-05-08 22:08:00,59.3,57.3,29.93,SW,215,0.0,0.0,93,0.00,,,0.56,LWC V2.11 B50,2013-05-09 02:08:00,
2013-05-08 22:13:00,59.1,57.1,29.94,SW,215,0.0,0.0,93,0.00,,,0.56,LWC V2.11 B50,2013-05-09 02:13:00,
2013-05-08 22:18:00,58.9,56.9,29.94,SW,215,0.0,0.0,93,0.00,,,0.56,LWC V2.11 B50,2013-05-09 02:18:00,
2013-05-08 22:23:00,58.8,56.8,29.94,SW,215,0.0,0.0,93,0.00,,,0.56,LWC V2.11 B50,2013-05-09 02:23:00,
2013-05-08 22:28:00,58.8,56.8,29.93,SW,215,0.0,0.0,93,0.00,,,0.56,LWC V2.11 B50,2013-05-09 02:28:00,
2013-05-08 22:33:00,58.7,56.4,29.93,SW,215,0.0,0.0,92,0.00,,,0.56,LWC V2.11 B50,2013-05-09 02:33:00,
2013-05-08 22:38:00,58.7,56.4,29.93,SW,215,0.0,0.0,92,0.00,,,0.56,LWC V2.11 B50,2013-05-09 02:38:00,
2013-05-08 22:43:00,58.6,56.6,29.93,SW,215,0.0,0.0,93,0.00,,,0.56,LWC V2.11 B50,2013-05-09 02:43:00,
2013-05-08 22:48:00,58.6,56.6,29.93,SW,215,0.0,0.0,93,0.00,,,0.56,LWC V2.11 B50,2013-05-09 02:48:00,
2013-05-08 22:53:00,58.5,56.5,29.93,SW,215,0.0,0.0,93,0.00,,,0.56,LWC V2.11 B50,2013-05-09 02:53:00,
2013-05-08 22:58:00,58.4,56.4,29.93,SW,215,0.0,0.0,93,0.00,,,0.56,LWC V2.11 B50,2013-05-09 02:58:00,
2013-05-08 23:03:00,58.3,56.3,29.93,SW,215,0.0,0.0,93,0.00,,,0.56,LWC V2.11 B50,2013-05-09 03:03:00,
2013-05-08 23:08:00,58.6,56.9,29.93,SW,215,0.0,0.0,94,0.00,,,0.56,LWC V2.11 B50,2013-05-09 03:08:00,
2013-05-08 23:13:00,58.6,56.6,29.93,SW,215,0.0,0.0,93,0.00,,,0.56,LWC V2.11 B50,2013-05-09 03:13:00,
2013-05-08 23:18:00,58.5,56.5,29.93,SW,215,0.0,0.0,93,0.00,,,0.56,LWC V2.11 B50,2013-05-09 03:18:00,
2013-05-08 23:23:00,58.4,56.4,29.93,SW,215,0.0,0.0,93,0.00,,,0.56,LWC V2.11 B50,2013-05-09 03:23:00,
2013-05-08 23:28:00,58.2,56.2,29.92,SW,215,0.0,0.0,93,0.00,,,0.56,LWC V2.11 B50,2013-05-09 03:28:00,
2013-05-08 23:33:00,58.0,56.0,29.92,SW,215,0.0,0.0,93,0.00,,,0.56,LWC V2.11 B50,2013-05-09 03:33:00,
2013-05-08 23:38:00,57.9,55.9,29.92,SW,215,0.0,0.0,93,0.00,,,0.56,LWC V2.11 B50,2013-05-09 03:38:00,
2013-05-08 23:43:00,57.7,55.7,29.92,SW,215,0.0,0.0,93,0.00,,,0.56,LWC V2.11 B50,2013-05-09 03:43:00,
2013-05-08 23:48:00,57.5,55.5,29.92,SW,215,0.0,0.0,93,0.00,,,0.56,LWC V2.11 B50,2013-05-09 03:48:00,
2013-05-08 23:53:00,57.3,55.3,29.93,SW,215,0.0,0.0,93,0.00,,,0.56,LWC V2.11 B50,2013-05-09 03:53:00,
2013-05-08 23:58:00,57.1,55.1,29.92,SW,215,0.0,0.0,93,0.00,,,0.56,LWC V2.11 B50,2013-05-09 03:58:00,